Weather observations for the past three days for
Appleton-Outagamie
Imperial (Metric)
Date Time (cdt) Wind (mph) Vis. (mi.) Weather Sky Cond. Temperature (ºF) Relative Humidity Wind Chill (°F) Heat Index (°F) Pressure Precipitation (in)
Air Dwpt 6 hour altimeter (in) sea level (mb) 1 hr 3 hr 6 hr
Max. Min.
19 12:45 Vrbl 5 10.00 Mostly Cloudy BKN040 78.8 57.2 48% 80 30.16 0.0
19 11:45 SW 7 10.00 Mostly Cloudy BKN042 75.2 57.2 54% 78 30.17 0.0
19 10:45 SW 6 10.00 Mostly Cloudy BKN050 75.2 57.2 54% 78 30.18 0.0
19 09:45 W 8 10.00 A Few Clouds FEW030 73.4 59 61% 30.19 0.0
19 08:45 W 7 10.00 Fair CLR 69.8 59 69% 30.2 0.0
19 07:45 W 8 10.00 Fair CLR 66.2 57.2 73% 30.2 0.0
19 06:45 W 8 10.00 Fair CLR 62.6 57.2 83% 30.2 0.0
19 05:45 W 8 10.00 Fair CLR 60.8 53.6 77% 30.18 0.0
19 05:15 W 8 10.00 Fair CLR 59 53.6 82% 30.18 0.0
19 04:55 W 8 10.00 Fair CLR 59 53.6 82% 30.18 0.0
19 04:35 W 8 10.00 Fair CLR 60.8 53.6 77% 30.17 0.0
19 04:15 W 8 10.00 Fair CLR 60.8 53.6 77% 30.16 0.0
19 03:55 W 8 10.00 Fair CLR 60.8 53.6 77% 30.16 0.0
19 03:35 W 8 10.00 Fair CLR 60.8 53.6 77% 30.16 0.0
19 03:15 W 8 10.00 Fair CLR 60.8 53.6 77% 30.16 0.0
19 02:55 W 8 10.00 Fair CLR 60.8 53.6 77% 30.15 0.0
19 02:35 W 8 10.00 Fair CLR 60.8 53.6 77% 30.15 0.0
19 02:15 W 7 10.00 Fair CLR 62.6 53.6 73% 30.15 0.0
19 01:55 W 7 10.00 Fair CLR 60.8 53.6 77% 30.16 0.0
19 01:35 W 5 10.00 Fair CLR 62.6 53.6 73% 30.16 0.0
19 01:15 W 5 10.00 Fair CLR 62.6 53.6 73% 30.16 0.0
19 00:55 W 5 10.00 Fair CLR 64.4 51.8 64% 30.17 0.0
19 00:35 W 6 10.00 Fair CLR 64.4 53.6 68% 30.16 0.0
19 00:15 W 7 10.00 Fair CLR 64.4 53.6 68% 30.17 0.0
18 23:55 W 6 10.00 Fair CLR 64.4 53.6 68% 30.16 0.0
18 23:35 W 6 10.00 Fair CLR 64.4 53.6 68% 30.16 0.0
18 23:15 W 6 10.00 Fair CLR 64.4 53.6 68% 30.16 0.0
18 22:55 W 6 10.00 Fair CLR 64.4 53.6 68% 30.16 0.0
18 22:45 W 6 10.00 Partly Cloudy SCT070 66.2 53.6 64% 30.16 0.0
18 21:45 Vrbl 5 10.00 Partly Cloudy SCT070 68 53.6 60% 30.17 0.0
18 20:45 Vrbl 5 10.00 Partly Cloudy SCT070 69.8 53.6 57% 30.16 0.0
18 18:45 Vrbl 5 10.00 Partly Cloudy SCT065 75.2 53.6 47% 78 30.16 0.0
18 17:45 Vrbl 6 10.00 Mostly Cloudy BKN065 77 50 39% 78 30.18 0.0
18 16:45 W 6 10.00 Mostly Cloudy BKN065 77 51.8 42% 78 30.18 0.0
18 15:45 Vrbl 5 10.00 Mostly Cloudy BKN060 75.2 50 41% 78 30.19 0.0
18 14:45 Vrbl 5 10.00 Mostly Cloudy BKN060 75.2 51.8 44% 78 30.19 0.0
18 13:45 N 8 10.00 Mostly Cloudy BKN055 75.2 50 41% 78 30.2 0.0
18 12:45 N 6 10.00 Mostly Cloudy BKN050 73.4 50 44% 30.21 0.0
18 11:45 N 12 10.00 Mostly Cloudy BKN055 73.4 50 44% 30.21 0.0
18 10:45 N 12 10.00 Partly Cloudy SCT040 71.6 50 47% 30.22 0.0
18 09:45 NW 9 10.00 Fair CLR 69.8 53.6 57% 30.21 0.0
18 08:45 NW 8 10.00 Fair CLR 66.2 55.4 68% 30.21 0.0
18 07:45 NW 6 10.00 Fair CLR 62.6 55.4 77% 30.22 0.0
18 06:45 NW 7 10.00 A Few Clouds FEW070 57.2 53.6 88% 30.2 0.0
18 05:45 NW 9 10.00 Partly Cloudy SCT070 55.4 53.6 94% 30.2 0.0
18 05:15 NW 8 10.00 Fair CLR 53.6 51.8 94% 30.2 0.0
18 04:55 W 7 10.00 Fair CLR 53.6 51.8 94% 30.19 0.0
18 04:35 W 7 10.00 Fair CLR 53.6 51.8 94% 30.19 0.0
18 04:15 W 7 10.00 Fair CLR 53.6 51.8 94% 30.19 0.0
18 03:55 W 8 10.00 Fair CLR 55.4 53.6 94% 30.19 0.0
18 03:35 W 8 10.00 Fair CLR 55.4 51.8 88% 30.18 0.0
18 03:15 W 7 10.00 Fair CLR 55.4 51.8 88% 30.17 0.0
18 02:55 W 7 10.00 Fair CLR 55.4 53.6 94% 30.17 0.0
18 02:35 W 7 10.00 Fair CLR 55.4 51.8 88% 30.17 0.0
18 02:15 NW 7 10.00 Fair CLR 55.4 53.6 94% 30.17 0.0
18 01:55 NW 6 10.00 Fair CLR 55.4 51.8 88% 30.17 0.0
18 01:35 NW 7 10.00 Fair CLR 57.2 51.8 82% 30.17 0.0
18 01:15 NW 7 10.00 Fair CLR 57.2 51.8 82% 30.17 0.0
18 00:55 NW 7 10.00 Fair CLR 57.2 51.8 82% 30.17 0.0
18 00:35 NW 6 10.00 Fair CLR 57.2 51.8 82% 30.17 0.0
18 00:15 N 3 10.00 Fair CLR 60.8 51.8 72% 30.16 0.0
17 23:55 N 3 10.00 Fair CLR 59 51.8 77% 30.16 0.0
17 23:35 N 6 10.00 Fair CLR 60.8 51.8 72% 30.15 0.0
17 23:15 N 5 10.00 Fair CLR 60.8 51.8 72% 30.15 0.0
17 22:55 N 3 10.00 Fair CLR 59 51.8 77% 30.15 0.0
17 22:45 N 5 10.00 Partly Cloudy SCT100 60.8 51.8 72% 30.15 0.0
17 21:45 N 5 10.00 Partly Cloudy SCT100 62.6 51.8 68% 30.14 0.0
17 20:45 N 9 10.00 Partly Cloudy SCT100 66.2 51.8 60% 30.12 0.0
17 18:45 N 16 10.00 Mostly Cloudy BKN060 71.6 51.8 50% 30.09 0.0
17 17:45 N 16 G 21 10.00 Mostly Cloudy BKN050 73.4 51.8 47% 30.07 0.0
17 16:45 N 13 G 18 10.00 Mostly Cloudy BKN050 71.6 51.8 50% 30.06 0.0
17 15:45 N 12 G 18 10.00 Mostly Cloudy BKN050 71.6 51.8 50% 30.07 0.0
17 14:45 N 16 G 22 10.00 Mostly Cloudy BKN047 71.6 51.8 50% 30.05 0.0
17 13:45 NW 15 G 22 10.00 Mostly Cloudy BKN045 71.6 51.8 50% 30.04 0.0
17 12:45 NW 17 G 24 10.00 Mostly Cloudy BKN043 71.6 51.8 50% 30.02 0.0
17 11:45 NW 14 G 20 10.00 Mostly Cloudy BKN042 71.6 53.6 53% 30.01 0.0
17 10:45 NW 14 G 20 10.00 Partly Cloudy SCT032 71.6 53.6 53% 30 0.0
17 09:45 NW 13 G 20 10.00 Partly Cloudy SCT030 69.8 55.4 60% 30 0.0
17 08:45 NW 10 10.00 Fair CLR 66.2 55.4 68% 29.99 0.0
17 07:45 NW 12 10.00 Fair CLR 64.4 57.2 78% 29.99 0.0
17 06:45 NW 8 10.00 Partly Cloudy SCT090 64.4 55.4 73% 29.96 0.0
17 05:45 N 8 10.00 Partly Cloudy SCT060 SCT090 64.4 57.2 78% 29.94 0.0
17 05:15 N 8 10.00 Overcast SCT060 OVC100 64.4 57.2 78% 29.93 0.0
17 04:55 N 8 10.00 Drizzle SCT060 OVC085 64.4 59 83% 29.92 0.0
17 04:35 NW 8 10.00 Overcast OVC075 64.4 59 83% 29.92 0.0
17 04:15 N 8 10.00 Overcast BKN075 BKN090 OVC120 64.4 57.2 78% 29.91 0.0
17 03:55 NW 8 10.00 Mostly Cloudy SCT090 BKN120 62.6 59 88% 29.9 0.0
17 03:35 NW 6 10.00 Mostly Cloudy BKN090 BKN120 64.4 59 83% 29.9 0.0
17 03:15 NW 6 10.00 Overcast OVC090 64.4 59 83% 29.9 0.0
17 02:55 NW 7 10.00 Mostly Cloudy BKN100 62.6 59 88% 29.9 0.0
17 02:35 W 7 10.00 Fair CLR 62.6 59 88% 29.9 0.0
17 02:15 W 9 10.00 Fair CLR 62.6 59 88% 29.9 0.0
17 01:55 W 7 10.00 Fair CLR 62.6 59 88% 29.9 0.0
17 01:35 NW 8 10.00 Fair CLR 64.4 59 83% 29.9 0.0
17 01:15 NW 8 10.00 Fair CLR 64.4 59 83% 29.9 0.0
17 00:55 NW 6 10.00 Fair CLR 64.4 59 83% 29.9 0.0
17 00:35 NW 7 10.00 Fair CLR 64.4 59 83% 29.9 0.0
17 00:15 W 6 10.00 Fair CLR 66.2 60.8 83% 29.9 0.0
16 23:55 W 6 10.00 Fair CLR 64.4 59 83% 29.89 0.0
16 23:35 W 5 10.00 Fair CLR 68 60.8 78% 29.88 0.0
16 23:15 W 5 10.00 Partly Cloudy SCT070 69.8 59 69% 29.88 0.0
16 22:55 W 5 10.00 Fair CLR 69.8 59 69% 29.88 0.0
16 22:45 Vrbl 5 10.00 Fair CLR 71.6 60.8 69% 29.88 0.0
16 21:45 NW 6 10.00 Fair CLR 71.6 60.8 69% 29.87 0.0
16 20:45 NW 7 10.00 Partly Cloudy SCT120 73.4 59 61% 29.85 0.0
16 19:45 NW 8 10.00 Partly Cloudy SCT120 77 60.8 57% 79 29.84 0.0
16 18:45 NW 9 G 17 10.00 Partly Cloudy SCT120 80.6 57.2 45% 81 29.83 0.0
16 17:45 W 9 10.00 Partly Cloudy SCT040 82.4 55.4 40% 82 29.83 0.0
16 16:45 NW 9 10.00 Partly Cloudy SCT040 82.4 57.2 42% 82 29.85 0.0
16 15:45 NW 9 10.00 Mostly Cloudy BKN040 82.4 55.4 40% 82 29.85 0.0
16 14:45 NW 10 10.00 Mostly Cloudy BKN040 82.4 57.2 42% 82 29.84 0.0
16 13:45 NW 12 10.00 Mostly Cloudy BKN040 80.6 60.8 51% 81 29.82 0.0
Date Time (cdt) Wind (mph) Vis. (mi.) Weather Sky Cond. Air Dwpt Max. Min. Relative Humidity Wind Chill (°F) Heat Index (°F) altimeter (in) sea level (mb) 1 hr 3 hr 6 hr
6 hour
Temperature (ºF) Pressure Precipitation (in)